Theta_e
329 328 326 325 324 325 326 326 323 321 319 318 316 315 314 313 313 313 312 311 311 310 309 308 307 306 305 303 301 299 297 297 297 297 297 297 297 297 297 297 297 298
328 326 324 324 323 323 324 323 321 320 318 316 315 314 313 313 312 312 311 310 309 308 307 306 306 305 303 301 299 297 296 296 297 297 297 297 297 296 296 296 296 297
326 324 323 324 323 323 322 321 319 318 316 314 314 313 312 312 311 311 310 309 308 307 306 305 304 302 300 299 297 296 296 296 296 297 296 296 296 296 296 296 296 296
324 323 324 323 323 322 320 319 317 316 314 313 313 312 311 311 310 310 309 308 307 306 305 304 302 300 299 297 296 296 296 296 296 296 297 296 296 296 296 296 295 296
323 323 323 322 322 321 319 318 316 314 313 313 312 311 310 310 309 309 308 307 306 305 303 302 301 299 297 296 296 296 296 296 297 297 297 297 296 296 296 296 296 297
322 321 322 321 320 320 318 316 314 313 312 312 312 310 309 309 309 308 307 306 305 304 303 301 299 297 296 296 296 296 297 297 297 297 297 297 296 296 296 296 297 297
321 320 320 320 319 318 317 315 313 312 311 311 311 309 309 308 308 307 306 305 304 303 302 300 298 296 295 295 296 296 297 297 297 297 297 297 296 296 296 297 297 297
320 318 318 318 316 315 315 313 312 311 310 311 310 308 308 308 307 306 305 304 303 302 301 299 297 295 295 295 296 296 296 297 297 297 297 297 297 296 297 297 297 297
318 317 316 316 315 314 313 312 311 310 310 310 309 307 307 307 306 306 305 304 303 301 300 298 296 295 295 296 296 297 297 297 297 297 297 297 297 297 297 297 298 298
316 316 315 315 314 313 312 310 310 309 309 309 307 306 306 306 306 305 304 303 302 301 300 298 296 295 295 296 297 297 297 297 297 297 297 297 297 297 298 298 298 298
314 314 314 314 313 312 311 310 309 308 308 307 306 306 306 305 305 304 304 303 301 301 300 298 296 296 296 297 297 297 297 297 297 297 297 297 297 297 297 298 298 298
313 313 313 313 312 311 310 308 308 307 307 306 305 305 305 305 304 304 303 302 301 301 300 298 297 297 297 297 297 296 296 296 297 297 297 297 297 297 297 298 298 297
313 313 313 313 312 310 309 308 307 306 305 305 304 305 305 304 304 303 303 302 301 301 300 298 297 297 297 297 297 297 296 296 296 297 297 297 297 297 297 297 297 297
313 313 313 312 311 309 308 307 306 305 304 304 304 304 305 304 304 303 302 302 301 301 300 298 297 297 297 297 297 297 297 297 297 297 297 297 297 297 297 296 296 297
313 312 312 311 309 308 307 306 305 304 303 302 303 304 304 304 303 303 302 302 301 301 300 298 297 297 297 297 297 297 297 297 298 297 297 297 297 296 297 297 297 296
312 311 310 309 307 305 305 304 303 302 301 300 302 303 304 304 303 303 302 302 301 301 300 299 297 297 297 297 297 297 297 297 298 298 297 297 297 297 297 297 297 296
311 309 308 306 304 304 303 303 302 300 298 298 300 303 304 303 303 303 302 302 301 301 300 299 298 298 298 298 297 297 297 297 298 297 297 297 297 297 297 297 297 296
309 307 305 304 303 303 303 302 301 299 297 297 300 303 303 303 303 303 302 302 301 301 300 300 299 299 299 298 298 297 297 298 298 298 298 298 297 297 297 297 297 297
307 305 304 303 303 303 303 301 298 296 296 296 299 302 303 303 303 303 302 302 301 301 300 299 299 299 299 299 298 298 298 298 298 298 298 298 297 296 297 297 297 297
307 305 304 303 303 302 301 298 296 295 295 296 299 301 303 303 303 302 302 302 301 301 300 299 299 299 299 299 299 298 298 298 298 298 298 298 297 295 296 297 296 296
306 305 303 302 301 301 298 296 295 295 295 297 298 299 300 301 302 302 302 301 301 301 300 299 299 299 298 299 299 299 298 298 298 298 298 298 297 295 295 296 295 294
306 304 302 301 300 299 296 296 297 297 296 295 295 296 298 300 302 302 302 301 301 301 300 300 300 299 299 299 299 299 299 298 298 298 298 298 297 295 295 295 295 294
305 304 302 300 299 298 297 299 300 298 295 293 294 297 298 300 301 302 301 301 301 301 300 300 300 300 299 299 299 299 299 299 299 298 298 298 297 295 295 295 294 294
304 304 303 300 298 298 300 302 301 298 294 293 294 296 298 300 301 301 301 301 301 300 300 300 300 300 300 299 299 299 299 299 299 299 299 299 297 295 296 295 294 294
304 305 303 300 299 301 302 302 301 296 294 294 294 295 298 299 300 300 300 300 300 300 300 300 300 299 299 299 299 299 299 299 299 299 299 298 297 296 296 296 294 294
305 304 302 300 301 303 302 302 300 295 293 294 294 295 298 299 299 299 299 299 299 299 299 299 299 299 299 299 298 298 298 298 299 299 299 298 297 296 296 296 295 295
Wind_Speed
26 27 28 27 27 25 23 20 19 17 15 13 13 13 12 12 13 13 14 15 15 15 16 16 17 16 16 15 16 17 19 20 21 21 21 22 23 23 23 23 23 21
25 27 27 27 27 25 22 21 19 17 15 14 13 13 13 14 15 15 16 16 16 16 17 17 16 16 16 16 17 19 20 21 21 21 22 23 23 24 25 26 26 24
27 28 27 27 26 24 22 21 19 17 17 16 14 13 14 16 16 16 16 17 17 18 18 17 17 16 16 17 18 20 21 21 22 22 24 24 24 25 26 26 26 25
29 29 28 27 26 25 24 22 20 19 18 17 15 14 15 17 18 18 18 18 18 19 19 17 17 17 17 17 19 21 22 22 23 23 24 24 24 25 26 25 26 25
29 29 28 28 27 25 24 23 21 20 19 18 16 15 17 18 18 18 19 19 20 20 19 18 17 17 18 19 21 22 22 23 23 23 23 23 23 25 24 24 23 22
29 28 29 28 27 26 24 23 22 21 20 18 17 16 17 18 18 19 20 21 22 21 19 18 18 18 19 21 22 22 22 23 22 22 22 22 23 24 22 21 20 19
29 29 30 29 28 27 25 24 23 22 20 18 16 16 18 18 19 20 21 22 22 21 19 18 19 20 21 21 22 23 23 22 21 20 21 21 21 21 20 18 17 17
31 31 31 30 29 27 25 24 23 22 20 18 16 17 18 19 20 22 22 23 22 20 20 19 20 21 21 22 22 23 23 22 20 20 20 20 19 19 18 17 16 15
31 31 30 30 29 28 26 25 23 22 20 17 16 19 20 20 20 22 23 23 22 21 21 21 21 21 21 22 21 21 21 21 20 19 19 18 17 16 16 15 15 15
31 31 30 30 29 27 26 25 24 22 19 17 18 21 21 21 21 23 23 22 22 22 22 21 21 21 21 21 20 18 18 19 19 18 17 16 16 15 14 13 14 14
29 29 29 28 28 26 26 25 24 22 19 18 20 22 22 22 23 23 23 23 23 22 22 21 21 21 21 21 19 19 18 18 17 16 16 15 15 14 13 13 13 13
29 28 28 28 27 26 26 25 24 21 20 20 20 21 22 23 24 24 24 23 23 22 21 21 21 21 21 20 20 20 19 18 17 15 14 14 13 13 13 12 12 12
29 28 28 27 27 27 26 25 23 22 21 20 20 21 23 24 24 24 24 23 23 23 21 21 22 21 21 20 19 19 19 18 17 15 14 13 12 12 12 11 12 12
28 27 27 27 27 27 26 25 24 22 21 20 20 22 23 24 25 25 25 24 24 23 22 21 22 21 20 19 18 18 18 17 15 14 13 13 12 11 10 11 11 12
28 27 26 26 26 27 27 25 24 22 20 19 20 22 23 24 25 25 25 25 24 23 21 21 21 21 20 19 19 18 17 15 14 13 12 12 11 10 10 10 10 12
27 26 26 26 27 28 27 25 23 21 19 20 21 23 24 24 25 25 25 25 24 24 22 20 20 20 19 18 18 17 16 15 13 12 11 10 9 9 9 9 10 10
26 26 26 28 28 27 26 23 21 20 20 21 22 24 24 25 25 25 26 25 24 24 22 20 19 18 17 16 16 16 15 14 12 11 10 9 8 8 8 8 8 9
27 27 28 29 28 26 24 22 20 20 20 22 23 24 25 25 25 25 25 25 24 24 22 20 18 17 16 15 14 13 13 12 11 10 10 8 7 7 7 7 7 8
29 29 30 30 28 26 24 22 21 20 21 22 24 25 25 25 25 25 25 24 24 24 22 19 18 17 16 15 13 13 12 11 10 9 8 7 7 7 7 7 7 7
31 32 32 31 29 27 25 23 22 21 21 21 23 24 24 23 23 24 24 24 25 24 21 19 18 17 16 14 13 12 12 11 9 8 7 6 7 7 7 7 8 8
33 33 33 32 30 28 25 23 21 19 20 20 21 22 22 22 23 24 24 25 25 23 21 20 19 18 16 14 13 12 12 11 9 8 6 5 5 6 6 7 7 8
35 35 34 33 31 29 27 24 20 19 20 20 20 21 23 23 24 24 24 25 24 23 22 21 20 18 16 15 13 11 12 12 10 8 6 4 4 5 5 6 7 7
37 36 36 34 33 31 30 25 20 20 22 22 22 23 25 25 25 25 24 24 23 23 22 21 20 18 16 15 13 11 12 13 12 9 7 5 4 5 4 5 6 6
38 38 37 36 36 34 29 24 21 23 24 23 23 24 25 26 25 25 23 22 22 22 22 21 20 18 16 15 14 12 12 12 12 9 7 6 5 5 4 3 4 4
39 38 37 39 37 32 27 25 24 25 24 24 24 24 25 25 25 24 23 22 21 21 20 20 19 18 17 15 14 13 12 12 11 9 8 7 6 5 4 3 2 3
39 38 38 39 35 30 28 27 26 25 26 26 25 25 25 25 24 24 23 22 21 20 19 19 19 18 17 16 14 14 13 12 11 9 9 8 7 5 4 3 1 1
Wind_Direction
176 175 172 168 165 160 158 159 159 155 149 144 141 139 141 145 147 148 144 142 142 138 137 136 133 130 125 119 113 109 109 107 105 103 100 98 96 94 93 90 88 84
175 174 171 167 164 160 158 159 157 151 145 142 139 138 144 149 149 150 147 144 142 139 138 136 133 129 123 117 114 112 112 109 107 106 103 100 98 95 93 89 86 84
175 173 172 168 165 161 157 157 154 148 144 141 139 139 146 150 151 151 149 147 143 139 139 136 131 127 121 118 118 116 115 113 111 109 105 102 99 96 92 88 86 84
176 172 172 170 167 162 158 156 152 147 144 142 141 142 148 152 153 152 150 149 145 141 139 136 130 127 122 122 122 119 118 116 113 110 106 103 100 96 92 89 86 83
175 171 172 170 165 161 158 155 151 149 148 144 143 145 151 154 155 155 153 150 147 142 139 135 130 128 127 126 123 120 119 117 115 111 107 103 99 96 92 89 87 83
171 169 169 167 164 163 160 156 153 152 150 145 143 147 153 156 157 157 155 151 147 143 139 135 132 130 130 128 124 122 119 118 115 111 107 103 99 96 93 89 86 82
168 167 166 166 165 163 159 156 154 153 150 145 144 151 156 159 160 159 156 152 147 144 140 136 134 133 131 128 125 123 121 118 115 111 107 103 100 97 94 90 86 82
165 165 164 164 162 160 158 156 155 153 151 146 147 155 160 163 163 159 156 153 148 144 141 137 136 135 132 129 126 123 122 119 115 112 109 105 102 97 94 90 86 81
162 163 163 162 160 160 159 156 154 153 152 150 152 159 163 165 164 160 157 153 149 145 142 139 138 136 132 129 126 124 121 118 115 113 109 106 103 98 94 89 84 78
160 162 162 161 160 160 157 155 155 155 155 155 157 161 164 165 164 161 158 154 150 146 142 140 139 136 132 129 127 126 122 119 116 113 109 106 102 98 93 87 81 75
158 159 160 160 160 159 157 157 157 156 157 159 160 163 165 165 163 161 159 155 152 147 143 141 140 136 132 128 126 125 122 120 118 114 111 106 101 97 90 83 78 71
158 159 161 161 161 160 158 159 159 159 160 161 164 166 166 166 165 162 160 157 154 149 145 142 141 137 132 128 125 121 119 120 120 118 114 108 101 96 88 82 77 69
160 162 163 163 162 161 160 161 161 162 163 164 167 169 169 168 166 164 162 159 156 152 148 145 143 140 135 130 125 121 118 119 119 119 118 111 104 97 88 82 76 67
162 164 165 164 164 163 162 163 163 165 166 167 170 171 171 170 169 166 163 160 158 156 152 150 148 143 138 133 129 124 121 119 119 119 119 114 106 98 90 83 74 66
163 164 165 165 165 164 164 164 165 166 167 170 172 173 172 171 170 168 165 162 161 158 155 154 152 148 143 138 134 131 127 123 121 120 118 114 108 99 89 82 74 65
163 165 166 166 166 164 164 164 164 165 168 171 173 173 173 172 171 169 166 164 162 161 159 157 156 153 146 141 138 135 132 128 124 121 118 114 109 101 90 79 73 64
165 167 167 166 164 163 163 164 164 165 168 170 171 172 172 172 171 170 168 166 165 164 163 162 161 158 153 149 146 140 136 134 130 124 118 112 106 100 89 78 70 60
166 166 164 163 163 163 164 165 165 166 168 169 170 172 172 172 173 172 170 169 168 167 167 167 167 165 162 160 157 152 147 142 137 129 119 110 102 95 86 76 67 57
165 164 164 164 165 165 165 166 166 167 168 168 170 172 172 173 173 174 173 172 171 171 170 169 170 170 168 167 166 166 162 152 145 137 124 111 101 95 87 74 62 53
165 167 168 168 167 167 166 166 166 166 166 167 169 170 171 173 175 176 176 176 175 174 172 172 173 173 173 173 174 176 175 167 158 149 134 115 101 98 91 73 58 52
169 170 169 168 167 166 164 162 161 163 165 167 169 169 169 174 179 180 179 179 179 178 176 176 176 175 175 176 176 177 180 180 175 167 152 126 106 104 94 70 57 52
172 172 170 169 168 165 162 159 160 165 168 170 174 174 171 176 182 184 183 181 181 182 182 181 181 179 178 178 178 177 182 186 187 180 169 151 124 116 97 65 55 51
175 174 171 169 168 166 163 164 170 173 171 173 178 178 176 178 182 184 184 183 183 185 186 184 182 182 181 182 184 184 186 190 191 185 177 172 152 133 104 63 53 46
177 177 174 171 170 169 169 173 179 178 176 177 180 180 180 180 182 183 183 184 186 188 189 188 185 185 184 186 190 191 189 190 190 185 182 180 165 146 117 72 53 35
179 179 177 174 172 173 176 178 179 180 181 182 182 182 181 181 182 183 183 184 189 191 192 193 190 188 188 190 194 196 192 190 188 184 182 181 171 156 133 101 58 14
180 180 179 177 176 179 180 178 178 182 183 182 182 181 180 181 181 182 182 184 188 191 193 195 195 193 194 196 198 198 192 188 188 185 181 179 173 162 145 132 127 352